Weather in Moseytsevo

Russia / Yaroslavl Oblast     57°06′37″N   39°44′24″E
temp.,
°C
wind,
m/s
gust,
m/s
humid.,
%
clouds,
%
prec.,
mm/h
press.,
hPa
HPBL,
m
17 may, mon
mon1700:00+13wsw23900 0.0 101425
03:00+12sw119022 0.0 101511
06:00+14sse1186100 0.0 101637
09:00+19ese237282 0.0 1016434
12:00+23se345755 0.0 10161212
15:00+25ese4652100 0.0 10151493
18:00+23e4969100 0.0 1013302
21:00+18e51290100 1.6 1013217
18 may, tue
tue1800:00+16ese41095100 0.0 1013174
03:00+15se41089100 0.0 1013155
06:00+15ese4128595 0.0 1013233
09:00+21se5117181 0.0 1013413
12:00+25se61156100 0.0 10131217
15:00+26se6105222 0.0 10121027
18:00+24ese612595 0.0 1011330
21:00+20ese717635 0.0 1011469
19 may, wed
wed1900:00+18se513755 0.0 1011290
03:00+16ese615770 0.0 1011317
06:00+16se5137871 0.0 1011355
09:00+22ese615650 0.0 1011648
12:00+26se7135483 0.0 10101511
15:00+26se71353100 0.0 1010763
18:00+24se7136212 0.0 1009501
21:00+21ese714705 0.0 1010566
20 may, thu
thu2000:00+19ese614793 0.1 1010430
03:00+17se615770 0.1 1010460
06:00+16ese512820 0.0 1009368
09:00+21se610680 0.0 1009726
12:00+23se81164100 0.3 10081521
15:00+22sse81369100 1.4 10071691
18:00+19se7118684 2.1 1007877
21:00+16sse4894100 3.8 1006381
21 may, fri
fri2100:00+15se61189100 0.9 1006405
03:00+12se51097100 1.0 1006357
06:00+13sse71290100 0.0 1005766
09:00+14s9127445 0.0 1006958
12:00+14sse8127696 0.0 10061244
15:00+16s9146413 0.3 10061918
18:00+13ssw71179100 0.7 10051121
21:00+10ssw71388100 0.9 1006816